TimeEST,TemperatureF,Dew PointF,Humidity,Sea Level PressureIn,VisibilityMPH,Wind Direction,Wind SpeedMPH,Gust SpeedMPH,PrecipitationIn,Events,Conditions,WindDirDegrees,DateUTC
12:15 AM,39.2,5.0,24,30.22,10.0,Calm,Calm,-,N/A,,Clear,0,2013-02-10 05:15:00
12:35 AM,39.2,8.6,28,30.21,10.0,ESE,3.5,-,N/A,,Clear,120,2013-02-10 05:35:00
12:55 AM,39.2,8.6,28,30.20,10.0,SE,4.6,-,N/A,,Clear,130,2013-02-10 05:55:00
1:15 AM,39.2,8.6,28,30.20,10.0,ESE,4.6,-,N/A,,Clear,120,2013-02-10 06:15:00
1:35 AM,39.2,6.8,26,30.20,10.0,SE,4.6,-,N/A,,Clear,130,2013-02-10 06:35:00
1:55 AM,39.2,8.6,28,30.20,10.0,SE,5.8,-,N/A,,Clear,130,2013-02-10 06:55:00
2:15 AM,37.4,10.4,33,30.21,10.0,ESE,3.5,-,N/A,,Clear,120,2013-02-10 07:15:00
2:35 AM,39.2,8.6,28,30.21,10.0,Calm,Calm,-,N/A,,Clear,0,2013-02-10 07:35:00
2:55 AM,37.4,10.4,33,30.21,10.0,Variable,3.5,-,N/A,,Clear,0,2013-02-10 07:55:00
3:35 AM,37.4,12.2,36,30.19,10.0,East,4.6,-,N/A,,Clear,100,2013-02-10 08:35:00
3:55 AM,37.4,14.0,38,30.19,10.0,ESE,3.5,-,N/A,,Clear,110,2013-02-10 08:55:00
4:15 AM,37.4,14.0,38,30.19,10.0,ESE,4.6,-,N/A,,Clear,120,2013-02-10 09:15:00
4:35 AM,39.2,14.0,36,30.19,10.0,ESE,3.5,-,N/A,,Clear,110,2013-02-10 09:35:00
4:55 AM,39.2,14.0,36,30.19,10.0,SE,4.6,-,N/A,,Clear,130,2013-02-10 09:55:00
5:15 AM,39.2,12.2,33,30.19,10.0,SE,5.8,-,N/A,,Clear,140,2013-02-10 10:15:00
5:35 AM,39.2,14.0,36,30.20,10.0,SE,4.6,-,N/A,,Clear,130,2013-02-10 10:35:00
5:55 AM,39.2,14.0,36,30.20,10.0,ESE,3.5,-,N/A,,Clear,110,2013-02-10 10:55:00
6:15 AM,39.2,14.0,36,30.21,10.0,Calm,Calm,-,N/A,,Clear,0,2013-02-10 11:15:00
6:35 AM,39.2,12.2,33,30.22,10.0,Variable,3.5,-,N/A,,Clear,0,2013-02-10 11:35:00
6:55 AM,39.2,15.8,39,30.22,10.0,ESE,4.6,-,N/A,,Clear,110,2013-02-10 11:55:00
7:15 AM,39.2,14.0,36,30.23,10.0,ESE,4.6,-,N/A,,Clear,120,2013-02-10 12:15:00
7:35 AM,39.2,15.8,39,30.23,10.0,Variable,4.6,-,N/A,,Clear,0,2013-02-10 12:35:00
7:55 AM,41.0,10.4,29,30.24,10.0,Variable,6.9,-,N/A,,Clear,0,2013-02-10 12:55:00
8:15 AM,39.2,15.8,39,30.24,10.0,Variable,4.6,-,N/A,,Clear,0,2013-02-10 13:15:00
8:35 AM,39.2,15.8,39,30.24,10.0,East,4.6,-,N/A,,Clear,100,2013-02-10 13:35:00
8:55 AM,44.6,17.6,34,30.22,10.0,Variable,4.6,-,N/A,,Clear,0,2013-02-10 13:55:00
9:15 AM,42.8,15.8,34,30.22,10.0,ESE,3.5,-,N/A,,Clear,110,2013-02-10 14:15:00
9:35 AM,44.6,15.8,31,30.24,10.0,Variable,5.8,-,N/A,,Clear,0,2013-02-10 14:35:00
9:55 AM,46.4,17.6,32,30.22,10.0,ESE,9.2,-,N/A,,Clear,110,2013-02-10 14:55:00
10:35 AM,50.0,17.6,28,30.23,10.0,Variable,6.9,-,N/A,,Clear,0,2013-02-10 15:35:00
10:55 AM,50.0,17.6,28,30.22,10.0,SE,6.9,-,N/A,,Clear,130,2013-02-10 15:55:00
11:15 AM,51.8,17.6,26,30.21,10.0,Variable,5.8,-,N/A,,Clear,0,2013-02-10 16:15:00
11:35 AM,51.8,17.6,26,30.20,10.0,SE,8.1,-,N/A,,Clear,130,2013-02-10 16:35:00
11:55 AM,53.6,15.8,22,30.20,10.0,Variable,5.8,-,N/A,,Clear,0,2013-02-10 16:55:00
12:15 PM,55.4,17.6,23,30.17,10.0,Variable,4.6,-,N/A,,Partly Cloudy,0,2013-02-10 17:15:00
12:35 PM,55.4,15.8,21,30.15,10.0,Variable,6.9,-,N/A,,Clear,0,2013-02-10 17:35:00
12:55 PM,55.4,17.6,23,30.15,10.0,SE,5.8,-,N/A,,Clear,130,2013-02-10 17:55:00
1:15 PM,55.4,15.8,21,30.14,10.0,SE,9.2,-,N/A,,Clear,130,2013-02-10 18:15:00
1:35 PM,55.4,15.8,21,30.13,10.0,Variable,3.5,-,N/A,,Clear,0,2013-02-10 18:35:00
1:55 PM,57.2,12.2,17,30.10,10.0,Variable,6.9,-,N/A,,Clear,0,2013-02-10 18:55:00
2:35 PM,55.4,10.4,17,30.10,10.0,SSE,9.2,-,N/A,,Clear,150,2013-02-10 19:35:00
2:55 PM,53.6,10.4,18,30.10,10.0,South,10.4,-,N/A,,Clear,180,2013-02-10 19:55:00
3:15 PM,51.8,8.6,18,30.09,10.0,South,15.0,25.3,N/A,,Partly Cloudy,170,2013-02-10 20:15:00
3:35 PM,51.8,8.6,18,30.09,10.0,South,9.2,-,N/A,,Partly Cloudy,180,2013-02-10 20:35:00
3:55 PM,51.8,8.6,18,30.08,10.0,SSE,9.2,-,N/A,,Partly Cloudy,150,2013-02-10 20:55:00
4:15 PM,51.8,10.4,19,30.07,10.0,SE,9.2,23.0,N/A,,Partly Cloudy,140,2013-02-10 21:15:00
4:35 PM,51.8,12.2,21,30.07,10.0,SSE,10.4,-,N/A,,Scattered Clouds,150,2013-02-10 21:35:00
4:55 PM,48.2,12.2,24,30.08,10.0,SSE,10.4,-,N/A,,Scattered Clouds,150,2013-02-10 21:55:00
5:15 PM,48.2,12.2,24,30.09,10.0,SSE,6.9,-,N/A,,Mostly Cloudy,160,2013-02-10 22:15:00
5:35 PM,48.2,12.2,24,30.10,10.0,SSE,11.5,-,N/A,,Mostly Cloudy,160,2013-02-10 22:35:00
5:55 PM,48.2,12.2,24,30.11,10.0,South,8.1,-,N/A,,Scattered Clouds,170,2013-02-10 22:55:00
6:15 PM,46.4,15.8,29,30.12,10.0,South,11.5,-,N/A,,Partly Cloudy,170,2013-02-10 23:15:00
6:35 PM,44.6,24.8,46,30.14,6.0,South,12.7,-,N/A,,Mostly Cloudy,180,2013-02-10 23:35:00
6:55 PM,41.0,30.2,65,30.15,5.0,South,8.1,-,N/A,,Scattered Clouds,170,2013-02-10 23:55:00
7:15 PM,39.2,37.4,93,30.13,6.0,Variable,6.9,-,N/A,,Unknown,0,2013-02-11 00:15:00
7:35 PM,37.4,37.4,100,30.10,6.0,Variable,3.5,-,N/A,,Unknown,0,2013-02-11 00:35:00
7:55 PM,39.2,39.2,100,30.09,10.0,Variable,3.5,-,N/A,,Unknown,0,2013-02-11 00:55:00
8:35 PM,41.0,39.2,93,30.05,10.0,SSE,10.4,21.9,N/A,,Scattered Clouds,150,2013-02-11 01:35:00
8:55 PM,42.8,41.0,93,30.04,10.0,SE,9.2,-,N/A,,Mostly Cloudy,130,2013-02-11 01:55:00
9:15 PM,41.0,39.2,93,30.04,10.0,Variable,4.6,-,N/A,,Overcast,0,2013-02-11 02:15:00
9:35 PM,44.6,41.0,87,30.05,10.0,South,10.4,23.0,N/A,,Overcast,170,2013-02-11 02:35:00
9:55 PM,44.6,42.8,93,30.03,10.0,Variable,6.9,-,N/A,,Overcast,0,2013-02-11 02:55:00
10:15 PM,44.6,42.8,93,30.02,10.0,Variable,6.9,-,N/A,,Mostly Cloudy,0,2013-02-11 03:15:00
10:35 PM,46.4,42.8,87,30.02,10.0,South,12.7,19.6,N/A,,Partly Cloudy,170,2013-02-11 03:35:00
10:55 PM,46.4,42.8,87,30.02,10.0,South,8.1,-,N/A,,Mostly Cloudy,180,2013-02-11 03:55:00
11:55 PM,46.4,44.6,93,29.99,10.0,Variable,6.9,-,N/A,,Mostly Cloudy,0,2013-02-11 04:55:00